When you browse on this site, cookies collect data to enhance your experience and personalize the content and advertising you see.
Visit our Privacy Policy to learn more. By continuing to use the site, you agree to this use of cookies and data.
  • In Romania
  • List of Countries
  • For 7 days
  • Water Temperature
  • Weather Map
  • Weather Widgets
  • user-avatar
    Login

    Hourly Weather Lezhe

    Today, 26 January, Sunday

    Time Temperature Precipitation Wind Pressure Humidity
    00:00 +9°C° 0.7 mm 2 mps 743 mmHg 94%
    01:00 +9°C° 0.7 mm 2 mps 743 mmHg 94%
    02:00 +9°C° 0.5 mm 2 mps 743 mmHg 94%
    03:00 +9°C° 0.5 mm 2 mps 743 mmHg 94%
    04:00 +9°C° 0.5 mm 2 mps 742 mmHg 93%
    05:00 +9°C° 0.2 mm 1 mps 742 mmHg 92%
    06:00 +9°C° 0.2 mm 1 mps 742 mmHg 91%
    07:00 +9°C° 0.2 mm 1 mps 742 mmHg 90%
    08:00 +10°C° 0.1 mm 1 mps 742 mmHg 86%
    09:00 +11°C° 0.1 mm 1 mps 742 mmHg 83%
    10:00 +12°C° 0.1 mm 1 mps 742 mmHg 79%
    11:00 +12°C° 0.1 mm 1 mps 741 mmHg 77%
    12:00 +13°C° 0.1 mm 1 mps 741 mmHg 76%
    13:00 +13°C° 0.1 mm 1 mps 740 mmHg 75%
    14:00 +13°C° 0 mm 1 mps 740 mmHg 76%
    15:00 +13°C° 0 mm 1 mps 740 mmHg 77%
    16:00 +12°C° 0 mm 1 mps 739 mmHg 78%
    17:00 +12°C° 0.2 mm 1 mps 739 mmHg 79%
    18:00 +12°C° 0.2 mm 2 mps 739 mmHg 81%
    19:00 +10°C° 0.2 mm 2 mps 739 mmHg 82%
    20:00 +10°C° 1 mm 2 mps 738 mmHg 84%
    21:00 +10°C° 1 mm 1 mps 738 mmHg 86%
    22:00 +10°C° 1 mm 1 mps 738 mmHg 87%
    23:00 +9°C° 4.9 mm 2 mps 738 mmHg 89%

    Tomorrow, 27 January, Monday

    Time Temperature Precipitation Wind Pressure Humidity
    00:00 +8°C° 4.9 mm 2 mps 738 mmHg 91%
    01:00 +8°C° 4.9 mm 2 mps 738 mmHg 92%
    02:00 +8°C° 0.3 mm 2 mps 738 mmHg 91%
    03:00 +8°C° 0.3 mm 2 mps 738 mmHg 91%
    04:00 +8°C° 0.3 mm 2 mps 737 mmHg 90%
    05:00 +9°C° 0.1 mm 1 mps 738 mmHg 90%
    06:00 +9°C° 0.1 mm 1 mps 738 mmHg 90%
    07:00 +8°C° 0.1 mm 1 mps 738 mmHg 90%
    08:00 +9°C° 0 mm 1 mps 738 mmHg 86%
    09:00 +11°C° 0 mm 1 mps 738 mmHg 82%
    10:00 +12°C° 0 mm 1 mps 738 mmHg 78%
    11:00 +12°C° 0.1 mm 1 mps 738 mmHg 75%
    12:00 +12°C° 0.1 mm 1 mps 738 mmHg 73%
    13:00 +13°C° 0.1 mm 1 mps 737 mmHg 70%
    14:00 +12°C° 0 mm 1 mps 737 mmHg 73%
    15:00 +12°C° 0 mm 1 mps 737 mmHg 76%
    16:00 +12°C° 0 mm 2 mps 737 mmHg 79%
    17:00 +10°C° 0.1 mm 2 mps 737 mmHg 83%
    18:00 +9°C° 0.1 mm 2 mps 738 mmHg 87%
    19:00 +8°C° 0.1 mm 2 mps 738 mmHg 90%
    20:00 +8°C° 0.1 mm 2 mps 738 mmHg 91%
    21:00 +7°C° 0.1 mm 2 mps 738 mmHg 92%
    22:00 +8°C° 0.1 mm 1 mps 739 mmHg 92%
    23:00 +8°C° 0.1 mm 1 mps 739 mmHg 93%

    Day after tomorrow, 28 January, Tuesday

    Time Temperature Precipitation Wind Pressure Humidity
    00:00 +8°C° 0.1 mm 1 mps 738 mmHg 93%
    01:00 +8°C° 0.1 mm 1 mps 738 mmHg 93%
    02:00 +8°C° 0.2 mm 1 mps 738 mmHg 93%
    03:00 +8°C° 0.2 mm 1 mps 738 mmHg 93%
    04:00 +8°C° 0.2 mm 1 mps 738 mmHg 93%
    05:00 +8°C° 0.2 mm 1 mps 738 mmHg 93%
    06:00 +8°C° 0.2 mm 1 mps 738 mmHg 93%
    07:00 +8°C° 0.2 mm 1 mps 738 mmHg 93%
    08:00 +8°C° 0.2 mm 2 mps 738 mmHg 90%
    09:00 +8°C° 0.2 mm 2 mps 738 mmHg 86%
    10:00 +9°C° 0.2 mm 3 mps 738 mmHg 83%
    11:00 +9°C° 0.2 mm 3 mps 737 mmHg 84%
    12:00 +8°C° 0.2 mm 4 mps 736 mmHg 84%
    13:00 +8°C° 0.2 mm 4 mps 736 mmHg 85%
    14:00 +8°C° 0.3 mm 5 mps 735 mmHg 85%
    15:00 +8°C° 0.3 mm 5 mps 735 mmHg 86%
    16:00 +8°C° 0.3 mm 5 mps 734 mmHg 86%
    17:00 +8°C° 0.7 mm 5 mps 734 mmHg 88%
    18:00 +8°C° 0.7 mm 6 mps 734 mmHg 89%
    19:00 +8°C° 0.7 mm 6 mps 734 mmHg 91%
    20:00 +8°C° 0.8 mm 6 mps 734 mmHg 90%
    21:00 +8°C° 0.8 mm 6 mps 733 mmHg 89%
    22:00 +8°C° 0.8 mm 7 mps 733 mmHg 88%
    23:00 +8°C° 0.8 mm 7 mps 733 mmHg 88%

    29 January, Wednesday

    Time Temperature Precipitation Wind Pressure Humidity
    00:00 +8°C° 0.8 mm 7 mps 732 mmHg 88%
    01:00 +8°C° 0.8 mm 7 mps 731 mmHg 87%
    02:00 +8°C° 1.1 mm 7 mps 731 mmHg 88%
    03:00 +8°C° 1.1 mm 7 mps 732 mmHg 88%
    04:00 +8°C° 1.1 mm 7 mps 732 mmHg 89%
    05:00 +8°C° 0.1 mm 6 mps 732 mmHg 86%
    06:00 +7°C° 0.1 mm 5 mps 733 mmHg 83%
    07:00 +6°C° 0.1 mm 4 mps 733 mmHg 80%
    08:00 +7°C° 0 mm 4 mps 734 mmHg 74%
    09:00 +8°C° 0 mm 4 mps 734 mmHg 69%
    10:00 +10°C° 0 mm 4 mps 735 mmHg 63%
    11:00 +10°C° 0 mm 3 mps 735 mmHg 61%
    12:00 +10°C° 0 mm 3 mps 734 mmHg 60%
    13:00 +10°C° 0 mm 3 mps 734 mmHg 58%
    14:00 +10°C° 0.1 mm 3 mps 734 mmHg 64%
    15:00 +9°C° 0.1 mm 3 mps 734 mmHg 70%
    16:00 +8°C° 0.1 mm 3 mps 734 mmHg 76%
    17:00 +8°C° 0.2 mm 3 mps 734 mmHg 80%
    18:00 +7°C° 0.2 mm 2 mps 734 mmHg 84%
    19:00 +7°C° 0.2 mm 2 mps 734 mmHg 88%
    20:00 +6°C° 0.3 mm 2 mps 735 mmHg 89%
    21:00 +6°C° 0.3 mm 2 mps 735 mmHg 89%
    22:00 +5°C° 0.3 mm 2 mps 735 mmHg 90%
    23:00 +6°C° 0.1 mm 2 mps 735 mmHg 90%

    30 January, Thursday

    Time Temperature Precipitation Wind Pressure Humidity
    00:00 +7°C° 0.1 mm 1 mps 735 mmHg 89%
    01:00 +7°C° 0.1 mm 1 mps 735 mmHg 88%
    02:00 +7°C° 0.1 mm 1 mps 735 mmHg 88%
    03:00 +6°C° 0.1 mm 1 mps 735 mmHg 88%
    04:00 +6°C° 0.1 mm 1 mps 735 mmHg 89%
    05:00 +6°C° 0.1 mm 1 mps 735 mmHg 88%
    06:00 +6°C° 0.1 mm 1 mps 736 mmHg 87%
    07:00 +6°C° 0.1 mm 1 mps 736 mmHg 87%
    08:00 +5°C° 0.2 mm 2 mps 736 mmHg 85%
    09:00 +6°C° 0.2 mm 2 mps 737 mmHg 83%
    10:00 +6°C° 0.2 mm 2 mps 737 mmHg 82%
    11:00 +6°C° 1.2 mm 2 mps 737 mmHg 83%
    12:00 +5°C° 1.2 mm 2 mps 737 mmHg 85%
    13:00 +5°C° 1.2 mm 2 mps 737 mmHg 87%
    14:00 +5°C° 0 mm 2 mps 737 mmHg 83%
    15:00 +5°C° 0 mm 2 mps 738 mmHg 78%
    16:00 +6°C° 0 mm 2 mps 738 mmHg 73%
    17:00 +5°C° 0 mm 2 mps 739 mmHg 74%
    18:00 +4°C° 0 mm 2 mps 739 mmHg 74%
    19:00 +3°C° 0 mm 2 mps 740 mmHg 75%
    20:00 +3°C° 0 mm 2 mps 740 mmHg 74%
    21:00 +2°C° 0 mm 2 mps 741 mmHg 72%
    22:00 +2°C° 0 mm 2 mps 741 mmHg 71%
    23:00 +2°C° 0 mm 2 mps 742 mmHg 70%

    31 January, Friday

    Time Temperature Precipitation Wind Pressure Humidity
    00:00 +2°C° 0 mm 2 mps 742 mmHg 69%
    01:00 +2°C° 0 mm 2 mps 742 mmHg 68%
    02:00 +2°C° 0 mm 2 mps 742 mmHg 66%
    03:00 +1°C° 0 mm 2 mps 742 mmHg 65%
    04:00 +1°C° 0 mm 2 mps 742 mmHg 63%
    05:00 +2°C° 0 mm 2 mps 742 mmHg 62%
    06:00 +2°C° 0 mm 2 mps 742 mmHg 60%
    07:00 +3°C° 0 mm 1 mps 742 mmHg 58%
    08:00 +4°C° 0 mm 1 mps 742 mmHg 54%
    09:00 +6°C° 0 mm 1 mps 742 mmHg 49%
    10:00 +7°C° 0 mm 1 mps 742 mmHg 44%
    11:00 +8°C° 0 mm 1 mps 742 mmHg 43%
    12:00 +9°C° 0 mm 1 mps 742 mmHg 41%
    13:00 +9°C° 0 mm 1 mps 741 mmHg 39%
    14:00 +9°C° 0 mm 1 mps 741 mmHg 45%
    15:00 +8°C° 0 mm 1 mps 741 mmHg 51%
    16:00 +8°C° 0 mm 1 mps 741 mmHg 57%
    17:00 +7°C° 0 mm 1 mps 741 mmHg 58%
    18:00 +6°C° 0 mm 1 mps 741 mmHg 59%
    19:00 +5°C° 0 mm 1 mps 741 mmHg 60%
    20:00 +4°C° 0 mm 1 mps 742 mmHg 60%
    21:00 +4°C° 0 mm 1 mps 742 mmHg 59%
    22:00 +4°C° 0 mm 1 mps 742 mmHg 58%
    23:00 +4°C° 0 mm 1 mps 742 mmHg 58%
    Show more